Location: Wawayanda State Park
(41.1833°N, 74.4333°W)
Time: 18:17:43
(UTC-04:00)

RESURS DK-1 - Visible Passes

Search period start: 20 April 2014 00:00
Search period end: 30 April 2014 00:00
Orbit: 560 x 569 km, 69.9° (Epoch: 20 April)

Date Brightness Start Highest point End Pass type
(mag) Time Alt. Az. Time Alt. Az. Time Alt. Az.
20 Apr 4.2 21:28:25 17° ENE 21:28:25 17° ENE 21:29:41 10° NE visible
20 Apr 4.4 23:04:18 26° NW 23:04:18 26° NW 23:07:46 10° N visible
21 Apr 2.8 21:26:19 39° ESE 21:26:19 39° ESE 21:30:03 10° NE visible
21 Apr 4.9 23:02:08 13° W 23:04:28 19° NW 23:07:32 10° N visible
22 Apr 2.4 21:22:08 10° S 21:26:12 57° ESE 21:30:18 10° NNE visible
22 Apr 5.4 23:02:20 10° W 23:04:44 15° NW 23:07:08 10° NNW visible
23 Apr 2.2 21:22:08 10° SSW 21:26:17 82° ESE 21:30:28 10° NNE visible
23 Apr 5.7 23:03:46 10° WNW 23:05:02 11° NW 23:06:17 10° NNW visible
24 Apr 2.7 21:22:15 10° SSW 21:26:23 70° WNW 21:30:34 10° NNE visible
25 Apr 3.4 21:22:29 10° SW 21:26:31 48° WNW 21:30:35 10° NNE visible
26 Apr 4.1 21:22:51 10° SW 21:26:41 35° WNW 21:30:32 10° N visible
27 Apr 4.8 21:23:22 10° WSW 21:26:52 26° NW 21:30:24 10° N visible
28 Apr 5.4 21:24:02 10° W 21:27:05 19° NW 21:30:09 10° N visible
29 Apr 6.1 04:09:42 10° NNE 04:10:56 11° NE 04:12:10 10° ENE visible
29 Apr 5.8 21:24:57 10° W 21:27:20 15° NW 21:29:44 10° NNW visible
